Hourly Data Report for October 25, 2016

All times are specified in Local Standard Time (LST). Add 1 hour to adjust for Daylight Saving Time where and when it is observed.

QIKIQTARJUAQ A
NUNAVUT

67°32'48.000" N
64°01'54.000" W
5.50 m
2400577
YVM

Download Data

Hourly Data (October 2016)
Hourly Data Report for October 25, 2016
Temp Definition
°C
Dew Point Temp Definition
°C
Rel Hum Definition
%
Wind Dir Definition
10's deg

Wind Spd Definition
km/h
Visibility Definition
km
Stn Press Definition
kPa
Hmdx Definition


Wind Chill Definition


Weather Definition


TIME
00:00 Legend Double Dagger -4.0 -7.3 78 32 30 16.1 101.41   -12 LegendNANA
01:00 Legend Double Dagger -3.5 -7.2 76 33 26 16.1 101.42   -11 Snow
02:00 Legend Double Dagger -3.6 -7.0 77 32 32 16.1 101.40   -11 Snow
03:00 Legend Double Dagger -3.4 -6.5 79 32 34 16.1 101.42   -11 Snow
04:00 Legend Double Dagger -3.8 -6.5 82 33 26 12.9 101.44   -11 Snow
05:00 Legend Double Dagger -4.2 -5.9 88 33 37 3.6 101.46   -13 Snow
06:00 Legend Double Dagger -4.1 -5.8 88 33 28 9.7 101.47   -12 Snow
07:00 Legend Double Dagger -3.9 -6.4 83 30 18 16.1 101.52   -10 Snow
08:00 Legend Double Dagger -3.7 -7.0 78 31 21 16.1 101.49   -10 Snow
09:00 Legend Double Dagger -3.6 -7.2 76 31 18 16.1 101.47   -9 Snow
10:00 Legend Double Dagger -3.3 -7.4 73 32 26 16.1 101.45   -10 LegendNANA
11:00 Legend Double Dagger -3.4 -7.4 74 31 26 16.1 101.43   -10 LegendNANA
12:00 Legend Double Dagger -3.4 -8.6 67 33 21 16.1 101.45   -10 LegendNANA
13:00 Legend Double Dagger -3.5 -8.1 71 33 21 16.1 101.47   -10 LegendNANA
14:00 Legend Double Dagger -3.4 -8.0 71 31 26 16.1 101.48   -10 LegendNANA
15:00 Legend Double Dagger -3.4 -8.3 69 31 26 16.1 101.51   -10 LegendNANA
16:00 Legend Double Dagger -3.9 -8.2 72 33 15 16.1 101.56   -9 LegendNANA
17:00 Legend Double Dagger -4.5 -7.0 83 33 15 12.9 101.58   -10 Snow
18:00 Legend Double Dagger -4.5 -6.2 88 34 13 4.8 101.60   -10 Snow
19:00 Legend Double Dagger -4.5 -7.7 79 31 13 16.1 101.60   -10 Snow
20:00 Legend Double Dagger -4.5 -8.0 77 30 15 16.1 101.60   -10 LegendNANA
21:00 Legend Double Dagger -4.4 -8.2 75 31 15 16.1 101.59   -10 LegendNANA
22:00 Legend Double Dagger -4.3 -9.0 70 30 15 16.1 101.57   -10 LegendNANA
23:00 Legend Double Dagger -4.5 -9.7 67 33 13 16.1 101.57   -10 LegendNANA

Notes on Data Quality.

Legend

  • E = Estimated
  • M = Missing
  • NA = Not Available
  • ‡ = Partner data that is not subject to review by the National Climate Archives
Date modified: